Find Starlink 11654

NORAD ID: 63265 Int'l Des: 2025-053 Owner: SPXS Country: US Constellation: starlink operational
別名: STARLINK-11654 [DTC] celestrak
LEOCIRCULAR

現在のビュー

3D地球を読み込み中...

About Starlink 11654

Starlink 11654 (NORAD 63265) is a starlink constellation satellite (v2 mini d2c) launched Mar 15, 2025 by SPXS of US. It operates in LEO, CIRCULAR orbit with a mass of 960.00 kg.

次回通過

Passes for default location (London). Set your location on the main map for personalized predictions.

高度履歴

Loading altitude history...

軌道要素

1 63265U 25053A 26235.87372808 .00214013 00000-0 16310-2 0 9992
2 63265 42.9994 184.4579 0002368 290.3554 69.7059 15.70806550 83965
Epoch: Aug 23, 2026 • Age: 12 hours

現在のステータス

高度 366.6 km
遠地点 / 近地点 N/A
速度 7.69 km/s
衛星直下点 -39.22°S, 41.13°W
打ち上げ日 Mar 15, 2025
運用期間 1.4 years
タイプ internet

技術仕様

分類 Payload
質量 960.00 kg
乾燥質量 910.00 kg
総質量 960.00 kg
長さ 0.30 m
直径 4.10 m
スパン 29.00 m
形状 Box + pan
製造者 SPXS
バスタイプ Starlink V2MD
フェーズステータス In Orbit
所有者/国 SPXS/US

Most Searched